• In Österreich
  • Länderverzeichnis
  • Für 7 Tage
  • Wassertemperatur
  • Satellitenkarten
  • Wetterkarte
  • News
  • Widgets
  • user-avatar
    Anmelden

    Stündliche Wetter Kavkiv Yar

    Heute, 21 Mai, Montag

    Zeit Temperatur Niederschläge Wind Luftdruck Luftfeuchtigkeit
    00:00 +10°C° 0 mm 2 m/S 743 mmHg 85%
    01:00 +10°C° 0 mm 2 m/S 743 mmHg 86%
    02:00 +10°C° 0 mm 1 m/S 743 mmHg 88%
    03:00 +10°C° 0 mm 1 m/S 743 mmHg 88%
    04:00 +9°C° 0 mm 2 m/S 743 mmHg 88%
    05:00 +9°C° 0 mm 2 m/S 744 mmHg 87%
    06:00 +10°C° 0 mm 2 m/S 744 mmHg 81%
    07:00 +13°C° 0 mm 2 m/S 744 mmHg 74%
    08:00 +14°C° 0 mm 3 m/S 744 mmHg 67%
    09:00 +16°C° 0 mm 3 m/S 744 mmHg 61%
    10:00 +17°C° 0 mm 3 m/S 744 mmHg 55%
    11:00 +18°C° 0 mm 3 m/S 744 mmHg 49%
    12:00 +19°C° 0 mm 3 m/S 744 mmHg 48%
    13:00 +19°C° 0 mm 3 m/S 744 mmHg 47%
    14:00 +20°C° 0 mm 3 m/S 744 mmHg 46%
    15:00 +20°C° 0 mm 2 m/S 743 mmHg 47%
    16:00 +20°C° 0 mm 2 m/S 743 mmHg 49%
    17:00 +20°C° 0 mm 2 m/S 743 mmHg 50%
    18:00 +18°C° 0 mm 2 m/S 743 mmHg 57%
    19:00 +16°C° 0 mm 2 m/S 743 mmHg 64%
    20:00 +14°C° 0 mm 2 m/S 743 mmHg 71%
    21:00 +14°C° 0 mm 2 m/S 743 mmHg 75%
    22:00 +13°C° 0 mm 2 m/S 743 mmHg 78%
    23:00 +12°C° 0 mm 2 m/S 743 mmHg 81%

    Morgen, 22 Mai, Dienstag

    Zeit Temperatur Niederschläge Wind Luftdruck Luftfeuchtigkeit
    00:00 +12°C° 0 mm 2 m/S 743 mmHg 82%
    01:00 +10°C° 0 mm 2 m/S 743 mmHg 84%
    02:00 +10°C° 0 mm 2 m/S 743 mmHg 85%
    03:00 +10°C° 0 mm 2 m/S 743 mmHg 85%
    04:00 +10°C° 0 mm 2 m/S 743 mmHg 85%
    05:00 +10°C° 0 mm 2 m/S 743 mmHg 86%
    06:00 +13°C° 0 mm 2 m/S 743 mmHg 79%
    07:00 +15°C° 0 mm 2 m/S 744 mmHg 73%
    08:00 +17°C° 0 mm 2 m/S 744 mmHg 66%
    09:00 +18°C° 0 mm 3 m/S 744 mmHg 62%
    10:00 +19°C° 0 mm 3 m/S 744 mmHg 58%
    11:00 +21°C° 0 mm 3 m/S 744 mmHg 53%
    12:00 +21°C° 0 mm 3 m/S 744 mmHg 51%
    13:00 +22°C° 0 mm 3 m/S 744 mmHg 49%
    14:00 +24°C° 0 mm 3 m/S 744 mmHg 47%
    15:00 +24°C° 0 mm 3 m/S 743 mmHg 48%
    16:00 +24°C° 0 mm 3 m/S 743 mmHg 49%
    17:00 +22°C° 0 mm 3 m/S 743 mmHg 50%
    18:00 +21°C° 0 mm 3 m/S 743 mmHg 55%
    19:00 +19°C° 0 mm 2 m/S 743 mmHg 60%
    20:00 +17°C° 0 mm 2 m/S 743 mmHg 64%
    21:00 +16°C° 0 mm 2 m/S 743 mmHg 64%
    22:00 +16°C° 0 mm 2 m/S 744 mmHg 65%
    23:00 +15°C° 0 mm 2 m/S 744 mmHg 65%

    übermorgen, 23 Mai, Mittwoch

    Zeit Temperatur Niederschläge Wind Luftdruck Luftfeuchtigkeit
    00:00 +15°C° 0 mm 2 m/S 744 mmHg 66%
    01:00 +14°C° 0 mm 2 m/S 743 mmHg 67%
    02:00 +14°C° 0 mm 2 m/S 743 mmHg 67%
    03:00 +14°C° 0 mm 2 m/S 743 mmHg 69%
    04:00 +13°C° 0 mm 2 m/S 743 mmHg 71%
    05:00 +13°C° 0 mm 2 m/S 743 mmHg 73%
    06:00 +15°C° 0 mm 2 m/S 743 mmHg 68%
    07:00 +18°C° 0 mm 2 m/S 744 mmHg 64%
    08:00 +20°C° 0 mm 2 m/S 744 mmHg 59%
    09:00 +21°C° 0 mm 2 m/S 744 mmHg 54%
    10:00 +23°C° 0 mm 2 m/S 744 mmHg 48%
    11:00 +25°C° 0 mm 2 m/S 744 mmHg 43%
    12:00 +25°C° 0 mm 2 m/S 744 mmHg 42%
    13:00 +26°C° 0 mm 2 m/S 744 mmHg 40%
    14:00 +26°C° 0 mm 2 m/S 743 mmHg 38%
    15:00 +26°C° 0 mm 2 m/S 743 mmHg 40%
    16:00 +26°C° 0 mm 2 m/S 743 mmHg 41%
    17:00 +26°C° 0 mm 2 m/S 742 mmHg 43%
    18:00 +24°C° 0 mm 2 m/S 742 mmHg 48%
    19:00 +21°C° 0 mm 2 m/S 742 mmHg 54%
    20:00 +19°C° 0 mm 2 m/S 742 mmHg 60%
    21:00 +18°C° 0 mm 2 m/S 742 mmHg 62%
    22:00 +18°C° 0 mm 2 m/S 742 mmHg 64%
    23:00 +17°C° 0 mm 2 m/S 742 mmHg 67%

    24 Mai, Donnerstag

    Zeit Temperatur Niederschläge Wind Luftdruck Luftfeuchtigkeit
    00:00 +16°C° 0 mm 2 m/S 742 mmHg 69%
    01:00 +16°C° 0 mm 2 m/S 742 mmHg 71%
    02:00 +15°C° 0 mm 2 m/S 742 mmHg 74%
    03:00 +15°C° 0 mm 2 m/S 741 mmHg 75%
    04:00 +15°C° 0 mm 2 m/S 741 mmHg 77%
    05:00 +14°C° 0 mm 2 m/S 741 mmHg 79%
    06:00 +16°C° 0 mm 2 m/S 741 mmHg 74%
    07:00 +19°C° 0 mm 3 m/S 742 mmHg 69%
    08:00 +21°C° 0 mm 3 m/S 742 mmHg 65%
    09:00 +22°C° 0 mm 4 m/S 742 mmHg 60%
    10:00 +23°C° 0 mm 4 m/S 742 mmHg 56%
    11:00 +25°C° 0 mm 4 m/S 741 mmHg 51%
    12:00 +26°C° 0 mm 4 m/S 741 mmHg 50%
    13:00 +26°C° 0 mm 5 m/S 741 mmHg 50%
    14:00 +27°C° 0 mm 5 m/S 740 mmHg 49%
    15:00 +26°C° 0 mm 5 m/S 740 mmHg 51%
    16:00 +26°C° 0 mm 5 m/S 740 mmHg 53%
    17:00 +26°C° 0 mm 5 m/S 740 mmHg 55%
    18:00 +23°C° 0 mm 5 m/S 740 mmHg 62%
    19:00 +22°C° 0 mm 4 m/S 740 mmHg 69%
    20:00 +20°C° 0 mm 4 m/S 740 mmHg 75%
    21:00 +19°C° 0 mm 4 m/S 740 mmHg 78%
    22:00 +19°C° 0 mm 4 m/S 739 mmHg 81%
    23:00 +18°C° 0 mm 4 m/S 739 mmHg 84%

    25 Mai, Freitag

    Zeit Temperatur Niederschläge Wind Luftdruck Luftfeuchtigkeit
    00:00 +17°C° 0,1 mm 5 m/S 739 mmHg 85%
    01:00 +17°C° 0,1 mm 5 m/S 739 mmHg 87%
    02:00 +17°C° 0,1 mm 6 m/S 739 mmHg 89%
    03:00 +16°C° 0,2 mm 6 m/S 739 mmHg 89%
    04:00 +16°C° 0,2 mm 6 m/S 739 mmHg 89%
    05:00 +16°C° 0,2 mm 6 m/S 739 mmHg 89%
    06:00 +17°C° 0 mm 6 m/S 740 mmHg 86%
    07:00 +18°C° 0 mm 7 m/S 740 mmHg 83%
    08:00 +18°C° 0 mm 7 m/S 740 mmHg 80%
    09:00 +21°C° 0 mm 7 m/S 740 mmHg 75%
    10:00 +23°C° 0 mm 7 m/S 740 mmHg 70%
    11:00 +24°C° 0 mm 8 m/S 741 mmHg 65%
    12:00 +24°C° 0,2 mm 8 m/S 741 mmHg 65%
    13:00 +24°C° 0,2 mm 8 m/S 741 mmHg 64%
    14:00 +26°C° 0,2 mm 8 m/S 741 mmHg 64%
    15:00 +24°C° 0,6 mm 8 m/S 741 mmHg 67%
    16:00 +23°C° 0,6 mm 7 m/S 741 mmHg 69%
    17:00 +22°C° 0,6 mm 7 m/S 741 mmHg 72%
    18:00 +21°C° 0,2 mm 7 m/S 742 mmHg 75%
    19:00 +20°C° 0,2 mm 6 m/S 742 mmHg 78%
    20:00 +19°C° 0,2 mm 5 m/S 742 mmHg 81%
    21:00 +17°C° 0 mm 6 m/S 743 mmHg 82%
    22:00 +16°C° 0 mm 6 m/S 743 mmHg 82%
    23:00 +15°C° 0 mm 6 m/S 744 mmHg 83%

    26 Mai, Samstag

    Zeit Temperatur Niederschläge Wind Luftdruck Luftfeuchtigkeit
    00:00 +14°C° 0 mm 6 m/S 744 mmHg 81%
    01:00 +13°C° 0 mm 6 m/S 745 mmHg 79%
    02:00 +11°C° 0 mm 6 m/S 745 mmHg 78%
    03:00 +10°C° 0 mm 6 m/S 745 mmHg 77%
    04:00 +10°C° 0 mm 6 m/S 746 mmHg 77%
    05:00 +9°C° 0 mm 6 m/S 747 mmHg 77%
    06:00 +10°C° 0 mm 6 m/S 747 mmHg 72%
    07:00 +11°C° 0 mm 6 m/S 748 mmHg 66%
    08:00 +12°C° 0 mm 7 m/S 748 mmHg 61%
    09:00 +14°C° 0 mm 7 m/S 749 mmHg 57%
    10:00 +15°C° 0 mm 7 m/S 749 mmHg 54%
    11:00 +16°C° 0 mm 7 m/S 749 mmHg 50%
    12:00 +17°C° 0 mm 7 m/S 749 mmHg 49%
    13:00 +17°C° 0 mm 6 m/S 749 mmHg 48%
    14:00 +17°C° 0 mm 6 m/S 749 mmHg 47%
    15:00 +17°C° 0 mm 6 m/S 749 mmHg 48%
    16:00 +17°C° 0 mm 6 m/S 749 mmHg 49%
    17:00 +17°C° 0 mm 6 m/S 749 mmHg 50%
    18:00 +15°C° 0 mm 5 m/S 750 mmHg 56%
    19:00 +13°C° 0 mm 4 m/S 750 mmHg 61%
    20:00 +12°C° 0 mm 3 m/S 750 mmHg 67%
    21:00 +11°C° 0 mm 3 m/S 750 mmHg 69%
    22:00 +10°C° 0 mm 3 m/S 750 mmHg 72%
    23:00 +9°C° 0 mm 3 m/S 751 mmHg 74%
    Mehr zeigen